Simultaneous Nadir Overpasses (SNOs) Predictions

Prediction of SNOs between LANDSAT-8 and METOP-B Satellite Orbit:

Table of predicted SNOs for the next 14.0 days since TLE Epoch: 11/13/2020
Index Date (LANDSAT-8) Time (LANDSAT-8) Lat,Lon (LANDSAT-8) SZA (LANDSAT-8 ) Date (METOP-B) Time (METOP-B) Lat,Lon (METOP-B) SZA (METOP-B ) Distance(km) Time Diff (sec)
1 11/15/2020 23:17:18 81.11,-129.65 102.20 11/15/2020 23:16:44 81.11,-129.58 102.20 1.27 34
2 11/16/2020 00:06:44 -81.12, 38.29 77.75 11/16/2020 00:07:24 -81.12, 38.14 77.75 2.55 40
3 11/18/2020 18:51:33 81.11, -63.15 102.87 11/18/2020 18:51:06 81.11, -63.07 102.87 1.42 27
4 11/18/2020 19:40:59 -81.13, 104.81 77.08 11/18/2020 19:41:46 -81.13, 104.64 77.08 2.97 47
5 11/21/2020 14:25:49 81.11, 3.31 103.48 11/21/2020 14:25:29 81.12, 3.41 103.49 1.95 20
6 11/21/2020 15:15:15 -81.13, 171.30 76.46 11/21/2020 15:16:09 -81.13, 171.12 76.46 3.09 54
7 11/24/2020 10:00:05 81.11, 69.73 104.04 11/24/2020 09:59:52 81.12, 69.88 104.06 2.81 13
8 11/24/2020 10:49:31 -81.13,-122.26 75.90 11/24/2020 10:50:32 -81.13,-122.42 75.90 2.88 61
9 11/27/2020 05:34:19 81.13, 136.47 104.59 11/27/2020 05:34:14 81.12, 136.32 104.57 2.78 5
